EST,Max TemperatureF,Mean TemperatureF,Min TemperatureF,Max Dew PointF,MeanDew PointF,Min DewpointF,Max Humidity, Mean Humidity, Min Humidity, Max Sea Level PressureIn, Mean Sea Level PressureIn, Min Sea Level PressureIn, Max VisibilityMiles, Mean VisibilityMiles, Min VisibilityMiles, Max Wind SpeedMPH, Mean Wind SpeedMPH, Max Gust SpeedMPH,PrecipitationIn, CloudCover, Events, WindDirDegrees
2012-12-1,69,52,35,52,45,36,100,83,46,30.41,30.36,30.33,7,6,4,7,1,,0.00,1,,86
2012-12-2,68,54,41,57,51,41,100,92,64,30.42,30.34,30.29,7,6,1,7,1,,0.00,5,Rain,143
2012-12-3,75,60,44,61,52,45,100,89,47,30.34,30.30,30.25,7,4,0,8,1,,0.00,4,Fog,226
2012-12-4,77,62,46,63,55,46,100,89,50,30.36,30.29,30.24,7,5,0,9,1,,0.00,6,Fog,205
2012-12-5,75,60,44,59,53,45,100,83,44,30.25,30.16,30.10,10,6,0,12,2,16,0.00,3,Fog,305
2012-12-6,60,55,50,59,46,39,100,75,63,30.25,30.20,30.15,10,7,4,15,9,18,0.00,8,,32
2012-12-7,64,55,46,59,51,41,100,86,71,30.15,30.06,29.99,10,6,2,10,4,,0.00,8,Rain,17
2012-12-8,66,58,50,59,54,50,100,96,68,30.10,30.05,30.00,7,4,0,5,1,,0.00,5,Fog-Rain,245
2012-12-9,75,60,46,64,57,46,100,90,65,30.15,30.09,30.00,10,6,2,8,1,,0.00,4,,142
2012-12-10,73,66,59,68,61,57,100,88,57,29.99,29.87,29.79,7,5,0,15,4,21,0.00,4,Fog,207
2012-12-11,69,64,59,66,61,59,100,93,68,30.08,29.93,29.78,10,7,4,8,4,,0.01,5,Rain,232
2012-12-12,59,50,41,59,48,41,100,100,94,30.26,30.17,30.05,10,7,1,15,6,23,0.38,8,Rain,17
2012-12-13,50,44,37,45,41,37,100,96,76,30.33,30.27,30.18,10,6,3,13,7,21,0.07,6,Rain,5
2012-12-14,59,46,33,43,37,34,100,84,44,30.38,30.30,30.24,10,6,2,7,2,,0.00,0,,14
2012-12-15,59,46,33,54,46,34,100,90,67,30.26,30.19,30.09,10,6,0,7,1,,0.00,6,Fog-Rain,39
2012-12-16,64,58,51,63,57,52,100,99,88,30.11,30.03,29.91,10,4,0,6,1,,0.01,8,Fog-Rain,160
2012-12-17,62,60,57,63,61,57,100,100,100,29.90,29.83,29.70,10,7,2,14,3,17,0.09,7,Rain,218
2012-12-18,66,52,37,59,49,37,100,80,42,29.98,29.82,29.74,10,7,1,12,5,23,0.00,3,,243
2012-12-19,68,50,33,46,39,34,100,79,33,30.13,30.06,29.97,10,7,5,7,1,,0.00,0,,245
2012-12-20,71,53,35,66,51,36,100,85,53,30.13,29.94,29.60,10,7,4,23,4,34,0.42,2,Rain,169
2012-12-21,60,50,41,61,31,27,100,58,43,29.91,29.79,29.62,10,7,5,18,11,31,0.00,2,,252
2012-12-22,51,42,32,32,25,21,100,60,32,30.16,30.08,29.91,10,7,4,9,5,17,0.00,0,,271
2012-12-23,57,42,26,37,31,27,100,75,33,30.22,30.13,30.08,10,7,5,8,1,,0.00,0,,201
2012-12-24,60,48,35,46,38,32,100,73,34,30.11,30.02,29.94,10,7,5,12,2,16,0.01,3,Rain,204
2012-12-25,57,50,42,54,50,43,100,96,82,30.12,30.03,29.96,10,6,0,7,1,,0.19,8,Fog-Rain,39
2012-12-26,68,55,42,66,50,32,100,82,49,29.99,29.69,29.47,10,7,3,22,8,33,0.34,6,Rain-Thunderstorm,192
2012-12-27,51,42,33,41,34,32,100,77,50,30.07,29.94,29.76,10,7,4,10,5,17,0.00,0,,258
2012-12-28,48,40,32,41,35,32,100,86,58,30.18,30.10,29.97,7,6,4,6,1,,0.00,2,,36
2012-12-29,55,48,42,50,43,36,100,86,66,30.00,29.82,29.73,10,7,1,10,4,25,1.03,7,Rain,289
2012-12-30,46,37,28,36,30,23,100,76,40,30.44,30.30,30.01,7,7,4,9,2,16,0.00,0,,318
2012-12-31,57,40,24,45,34,25,100,81,41,30.46,30.33,30.18,10,6,4,9,1,,0.00,2,,212